When you browse on this site, cookies collect data to enhance your experience and personalize the content and advertising you see.
Visit our Privacy Policy to learn more. By continuing to use the site, you agree to this use of cookies and data.
  • Em Portugal
  • Lista de países
  • Para 7 dias
  • Temperatura da água
  • Mapa do tempo
  • Widgets de tempo
  • user-avatar
    Iniciar Sessão

    Previsão horária em São Miguel de Tucumán

    Hoje, 28 Maio, Quinta-feira

    Tempo Temperatura Precipitação Vento Pressão Humidade
    00:00 +16°C° 0 mm 1 m/s 718 mmHg 65%
    01:00 +16°C° 0 mm 1 m/s 717 mmHg 66%
    02:00 +14°C° 0 mm 0 m/s 717 mmHg 66%
    03:00 +15°C° 0 mm 1 m/s 717 mmHg 67%
    04:00 +15°C° 0 mm 1 m/s 717 mmHg 67%
    05:00 +15°C° 0 mm 1 m/s 717 mmHg 68%
    06:00 +15°C° 0 mm 1 m/s 718 mmHg 66%
    07:00 +16°C° 0 mm 1 m/s 718 mmHg 65%
    08:00 +16°C° 0 mm 1 m/s 719 mmHg 64%
    09:00 +20°C° 0 mm 1 m/s 719 mmHg 56%
    10:00 +23°C° 0 mm 1 m/s 719 mmHg 48%
    11:00 +25°C° 0 mm 1 m/s 719 mmHg 40%
    12:00 +26°C° 0 mm 1 m/s 718 mmHg 39%
    13:00 +27°C° 0 mm 1 m/s 717 mmHg 38%
    14:00 +28°C° 0 mm 2 m/s 716 mmHg 36%
    15:00 +27°C° 0 mm 1 m/s 716 mmHg 40%
    16:00 +26°C° 0 mm 1 m/s 716 mmHg 44%
    17:00 +25°C° 0 mm 1 m/s 716 mmHg 48%
    18:00 +23°C° 0 mm 1 m/s 716 mmHg 53%
    19:00 +21°C° 0 mm 1 m/s 716 mmHg 57%
    20:00 +19°C° 0 mm 1 m/s 716 mmHg 61%
    21:00 +19°C° 0 mm 1 m/s 717 mmHg 63%
    22:00 +18°C° 0 mm 1 m/s 717 mmHg 64%
    23:00 +18°C° 0 mm 1 m/s 717 mmHg 66%

    Amanhã, 29 Maio, Sexta-feira

    Tempo Temperatura Precipitação Vento Pressão Humidade
    00:00 +18°C° 0 mm 1 m/s 717 mmHg 66%
    01:00 +16°C° 0 mm 1 m/s 716 mmHg 66%
    02:00 +16°C° 0 mm 1 m/s 716 mmHg 66%
    03:00 +16°C° 0 mm 1 m/s 716 mmHg 67%
    04:00 +16°C° 0 mm 1 m/s 716 mmHg 67%
    05:00 +16°C° 0 mm 1 m/s 716 mmHg 67%
    06:00 +16°C° 0 mm 1 m/s 717 mmHg 66%
    07:00 +16°C° 0 mm 1 m/s 717 mmHg 65%
    08:00 +16°C° 0 mm 0 m/s 717 mmHg 64%
    09:00 +21°C° 0 mm 1 m/s 717 mmHg 56%
    10:00 +23°C° 0 mm 1 m/s 718 mmHg 49%
    11:00 +26°C° 0 mm 1 m/s 718 mmHg 42%
    12:00 +27°C° 0 mm 1 m/s 717 mmHg 40%
    13:00 +28°C° 0 mm 1 m/s 717 mmHg 39%
    14:00 +28°C° 0 mm 2 m/s 716 mmHg 37%
    15:00 +27°C° 0 mm 1 m/s 716 mmHg 42%
    16:00 +26°C° 0 mm 1 m/s 715 mmHg 47%
    17:00 +25°C° 0 mm 1 m/s 715 mmHg 51%
    18:00 +23°C° 0 mm 1 m/s 716 mmHg 56%
    19:00 +21°C° 0 mm 1 m/s 716 mmHg 60%
    20:00 +20°C° 0 mm 1 m/s 716 mmHg 64%
    21:00 +19°C° 0 mm 1 m/s 716 mmHg 65%
    22:00 +19°C° 0 mm 1 m/s 716 mmHg 66%
    23:00 +19°C° 0 mm 1 m/s 716 mmHg 67%

    Depois de amanhã, 30 Maio, Sábado

    Tempo Temperatura Precipitação Vento Pressão Humidade
    00:00 +18°C° 0 mm 1 m/s 716 mmHg 67%
    01:00 +18°C° 0 mm 1 m/s 716 mmHg 67%
    02:00 +18°C° 0 mm 1 m/s 716 mmHg 67%
    03:00 +16°C° 0 mm 1 m/s 716 mmHg 67%
    04:00 +16°C° 0 mm 1 m/s 716 mmHg 68%
    05:00 +16°C° 0 mm 1 m/s 716 mmHg 69%
    06:00 +16°C° 0 mm 1 m/s 717 mmHg 68%
    07:00 +16°C° 0 mm 2 m/s 717 mmHg 67%
    08:00 +17°C° 0 mm 2 m/s 718 mmHg 66%
    09:00 +18°C° 0 mm 2 m/s 718 mmHg 61%
    10:00 +20°C° 0 mm 2 m/s 718 mmHg 56%
    11:00 +22°C° 0 mm 3 m/s 719 mmHg 51%
    12:00 +24°C° 0 mm 3 m/s 718 mmHg 49%
    13:00 +24°C° 0 mm 3 m/s 718 mmHg 47%
    14:00 +25°C° 0 mm 4 m/s 717 mmHg 46%
    15:00 +24°C° 0 mm 3 m/s 717 mmHg 49%
    16:00 +22°C° 0 mm 3 m/s 718 mmHg 52%
    17:00 +21°C° 0 mm 3 m/s 718 mmHg 56%
    18:00 +20°C° 0 mm 3 m/s 719 mmHg 57%
    19:00 +19°C° 0 mm 2 m/s 720 mmHg 58%
    20:00 +18°C° 0 mm 2 m/s 721 mmHg 59%
    21:00 +17°C° 0 mm 2 m/s 721 mmHg 59%
    22:00 +17°C° 0 mm 2 m/s 722 mmHg 59%
    23:00 +16°C° 0 mm 2 m/s 722 mmHg 58%

    31 Maio, Domingo

    Tempo Temperatura Precipitação Vento Pressão Humidade
    00:00 +15°C° 0 mm 2 m/s 722 mmHg 59%
    01:00 +14°C° 0 mm 3 m/s 722 mmHg 59%
    02:00 +13°C° 0 mm 3 m/s 722 mmHg 59%
    03:00 +14°C° 0 mm 2 m/s 722 mmHg 59%
    04:00 +13°C° 0 mm 2 m/s 722 mmHg 59%
    05:00 +13°C° 0 mm 1 m/s 722 mmHg 60%
    06:00 +13°C° 0 mm 1 m/s 723 mmHg 59%
    07:00 +13°C° 0 mm 1 m/s 723 mmHg 59%
    08:00 +13°C° 0 mm 1 m/s 724 mmHg 59%
    09:00 +13°C° 0 mm 2 m/s 724 mmHg 56%
    10:00 +14°C° 0 mm 2 m/s 724 mmHg 53%
    11:00 +14°C° 0 mm 2 m/s 724 mmHg 51%
    12:00 +15°C° 0 mm 2 m/s 723 mmHg 50%
    13:00 +16°C° 0 mm 2 m/s 723 mmHg 48%
    14:00 +16°C° 0 mm 1 m/s 722 mmHg 47%
    15:00 +16°C° 0 mm 1 m/s 722 mmHg 50%
    16:00 +15°C° 0 mm 1 m/s 722 mmHg 52%
    17:00 +15°C° 0 mm 1 m/s 722 mmHg 54%
    18:00 +14°C° 0 mm 1 m/s 723 mmHg 59%
    19:00 +12°C° 0 mm 1 m/s 723 mmHg 64%
    20:00 +11°C° 0 mm 1 m/s 723 mmHg 68%
    21:00 +11°C° 0 mm 1 m/s 724 mmHg 69%
    22:00 +10°C° 0 mm 1 m/s 724 mmHg 70%
    23:00 +10°C° 0 mm 1 m/s 724 mmHg 71%

    1 Junho, Segunda-feira

    Tempo Temperatura Precipitação Vento Pressão Humidade
    00:00 +10°C° 0 mm 1 m/s 724 mmHg 72%
    01:00 +9°C° 0 mm 1 m/s 724 mmHg 73%
    02:00 +9°C° 0 mm 1 m/s 724 mmHg 73%
    03:00 +9°C° 0 mm 1 m/s 724 mmHg 74%
    04:00 +8°C° 0 mm 1 m/s 724 mmHg 75%
    05:00 +7°C° 0 mm 0 m/s 723 mmHg 76%
    06:00 +9°C° 0 mm 1 m/s 724 mmHg 73%
    07:00 +9°C° 0 mm 1 m/s 724 mmHg 70%
    08:00 +10°C° 0 mm 1 m/s 724 mmHg 67%
    09:00 +13°C° 0 mm 1 m/s 725 mmHg 59%
    10:00 +15°C° 0 mm 1 m/s 725 mmHg 51%
    11:00 +19°C° 0 mm 1 m/s 725 mmHg 42%
    12:00 +19°C° 0 mm 2 m/s 724 mmHg 40%
    13:00 +20°C° 0 mm 2 m/s 723 mmHg 38%
    14:00 +20°C° 0 mm 2 m/s 722 mmHg 37%
    15:00 +19°C° 0 mm 2 m/s 722 mmHg 40%
    16:00 +18°C° 0 mm 2 m/s 722 mmHg 44%
    17:00 +17°C° 0 mm 2 m/s 721 mmHg 47%
    18:00 +16°C° 0 mm 2 m/s 721 mmHg 53%
    19:00 +14°C° 0 mm 1 m/s 722 mmHg 58%
    20:00 +12°C° 0 mm 1 m/s 722 mmHg 64%
    21:00 +11°C° 0 mm 1 m/s 722 mmHg 65%
    22:00 +11°C° 0 mm 1 m/s 722 mmHg 67%
    23:00 +11°C° 0 mm 1 m/s 722 mmHg 69%

    2 Junho, Terça-feira

    Tempo Temperatura Precipitação Vento Pressão Humidade
    00:00 +10°C° 0 mm 1 m/s 721 mmHg 70%
    01:00 +10°C° 0 mm 1 m/s 721 mmHg 72%
    02:00 +10°C° 0 mm 1 m/s 721 mmHg 74%
    03:00 +10°C° 0 mm 1 m/s 720 mmHg 75%
    04:00 +9°C° 0 mm 1 m/s 720 mmHg 76%
    05:00 +9°C° 0 mm 1 m/s 719 mmHg 77%
    06:00 +10°C° 0 mm 1 m/s 719 mmHg 74%
    07:00 +10°C° 0 mm 1 m/s 720 mmHg 71%
    08:00 +11°C° 0 mm 1 m/s 720 mmHg 69%
    09:00 +14°C° 0 mm 1 m/s 720 mmHg 61%
    10:00 +16°C° 0 mm 1 m/s 719 mmHg 53%
    11:00 +19°C° 0 mm 2 m/s 719 mmHg 45%
    12:00 +20°C° 0 mm 2 m/s 718 mmHg 42%
    13:00 +21°C° 0 mm 2 m/s 717 mmHg 39%
    14:00 +24°C° 0 mm 2 m/s 717 mmHg 36%
    15:00 +21°C° 0 mm 2 m/s 716 mmHg 40%
    16:00 +20°C° 0 mm 2 m/s 716 mmHg 44%
    17:00 +19°C° 0 mm 2 m/s 716 mmHg 48%
    18:00 +17°C° 0 mm 2 m/s 716 mmHg 54%
    19:00 +15°C° 0 mm 2 m/s 717 mmHg 59%
    20:00 +13°C° 0 mm 1 m/s 717 mmHg 65%
    21:00 +13°C° 0 mm 1 m/s 718 mmHg 67%
    22:00 +12°C° 0 mm 1 m/s 718 mmHg 69%
    23:00 +12°C° 0 mm 1 m/s 719 mmHg 71%
    Mostrar mais